星链-3952 (STARLINK-3952 )

导读 | 豆包AI

STARLINK-3952是美国太空探索技术公司Starlink互联网星座中的一颗卫星,于2022年5月13日发射入轨。它属于Starlink组网卫星,旨在为全球提供低延迟、高速率的宽带互联网服务,依托近地轨道部署,逐步完善星座覆盖,补充星座网络容量,支撑星链系统面向全球偏远地区、高需求场景提供卫星互联网接入服务。

基本信息
目录编号:
52534
目录名称:
STARLINK-3952
国际标识:
2022-051B
轨道中心:
EARTH
卫星名称:
星链-3952
卫星全名:
星链-3952 (STARLINK-3952 )
卫星状态:
在轨 (已飞行1401 天)
发射日期:
2022-05-13 UTC
国别 :
美国 (US)
星等 :
--
轨道信息
数据来源 国际轨道数据
星历时间: 2026-03-15T00:00:02+0800
7小时前
查看轨道信息
半长轴: 6774.724km
偏心率: 0.0001294
轨道倾角: 53.217°
近地点辐角 75.543°
升交点赤经 101.932°
平近点角 169.246°
近地点: 395.71km
远地点: 397.464km
周期: 92.490分钟
每日圈数: 15.569168
详细信息
固有亮度:
5
最大亮度:
2.5
卫星平台:
Starlink v1.5
覆盖范围:
全球
运营商:
太空探索技术公司
运营商所在国:
美国
制造商(研发单位):
太空探索技术公司
制造商所在国:
美国
使用方式:
暂无
卫星简介
星链(Starlink)计划是由太空探索技术公司(SpaceX)提出的一个巨型低轨卫星互联网星座项目,计划在2019年至2024年间在太空搭建由约1.2万颗卫星组成的“星链”网络,其中1584颗将部署在地球上空550千米处的近地轨道,并从2020年开始工作。该卫星仍在工作。
2D轨道图
3D轨道图
轨道高度分析图
轨道倾角分析图
轨道综合分析图
查看轨道综合分析图